User: anonymous   Login
Location: Casteau
(50.5142°N, 4.0161°E)
Time: 23:33:06
(UTC+00:00)
Language:

Cosmos 1844 Rocket - Orbit

View from above orbital plane
View from above orbital plane
View from above satellite
View from above satellite

Ground track
Ground track

The orbit data is extracted from the following two-line orbital elements,

1 17974U 87041B   21127.56016830  .00000165  00000-0  10536-3 0  9990
2 17974  71.0063 157.1710 0013139  15.2922 100.5742 14.17275154757697
Epoch (UTC): 07 May 2021 13:26:38
Eccentricity: 0.0013139
inclination: 71.0063°
perigee height: 825 km
apogee height: 844 km
right ascension of ascending node: 157.1710°
argument of perigee: 15.2922°
revolutions per day: 14.17275154
mean anomaly at epoch: 100.5742°
orbit number at epoch: 75769

The dashed part of the orbit path shows where the satellite is in the earth's shadow,  

DLR